EN

Hourly Weather Townsville

Today, 28 October, Wednesday

Time Temperature Precipitation Wind Pressure Humidity
00:00 +26°C° 0 mm 1 mps 753 mmHg 80%
01:00 +26°C° 0 mm 1 mps 753 mmHg 80%
02:00 +25°C° 0.1 mm 1 mps 753 mmHg 80%
03:00 +25°C° 0.1 mm 1 mps 753 mmHg 80%
04:00 +23°C° 0 mm 0 mps 753 mmHg 79%
05:00 +26°C° 0 mm 1 mps 753 mmHg 76%
06:00 +26°C° 0 mm 1 mps 754 mmHg 74%
07:00 +27°C° 0 mm 1 mps 754 mmHg 72%
08:00 +28°C° 0 mm 1 mps 754 mmHg 64%
09:00 +30°C° 0 mm 2 mps 754 mmHg 56%
10:00 +34°C° 0 mm 2 mps 754 mmHg 46%
11:00 +34°C° 0 mm 3 mps 754 mmHg 46%
12:00 +34°C° 0 mm 3 mps 753 mmHg 46%
13:00 +34°C° 0 mm 4 mps 752 mmHg 47%
14:00 +33°C° 0 mm 4 mps 752 mmHg 50%
15:00 +32°C° 0 mm 4 mps 751 mmHg 53%
16:00 +32°C° 0 mm 4 mps 751 mmHg 56%
17:00 +30°C° 0 mm 3 mps 751 mmHg 63%
18:00 +28°C° 0 mm 2 mps 752 mmHg 70%
19:00 +27°C° 0 mm 2 mps 752 mmHg 77%
20:00 +27°C° 0 mm 2 mps 752 mmHg 81%
21:00 +26°C° 0 mm 2 mps 753 mmHg 84%
22:00 +26°C° 0 mm 2 mps 753 mmHg 87%
23:00 +26°C° 0.1 mm 2 mps 753 mmHg 88%

Tomorrow, 29 October, Thursday

Time Temperature Precipitation Wind Pressure Humidity
00:00 +25°C° 0.1 mm 2 mps 752 mmHg 89%
01:00 +25°C° 0.1 mm 1 mps 752 mmHg 90%
02:00 +25°C° 0.2 mm 1 mps 752 mmHg 90%
03:00 +24°C° 0.2 mm 1 mps 752 mmHg 89%
04:00 +24°C° 0.2 mm 1 mps 751 mmHg 89%
05:00 +25°C° 0.1 mm 1 mps 752 mmHg 84%
06:00 +26°C° 0.1 mm 1 mps 753 mmHg 78%
07:00 +27°C° 0.1 mm 1 mps 753 mmHg 73%
08:00 +29°C° 0 mm 1 mps 753 mmHg 62%
09:00 +31°C° 0 mm 1 mps 753 mmHg 52%
10:00 +33°C° 0 mm 1 mps 753 mmHg 42%
11:00 +35°C° 0 mm 2 mps 752 mmHg 40%
12:00 +36°C° 0 mm 3 mps 752 mmHg 37%
13:00 +37°C° 0 mm 4 mps 751 mmHg 34%
14:00 +36°C° 0 mm 4 mps 750 mmHg 36%
15:00 +35°C° 0 mm 4 mps 750 mmHg 38%
16:00 +34°C° 0 mm 4 mps 749 mmHg 40%
17:00 +31°C° 0 mm 3 mps 750 mmHg 51%
18:00 +29°C° 0 mm 3 mps 750 mmHg 61%
19:00 +27°C° 0 mm 2 mps 751 mmHg 71%
20:00 +26°C° 0 mm 2 mps 751 mmHg 75%
21:00 +26°C° 0 mm 2 mps 751 mmHg 79%
22:00 +25°C° 0 mm 2 mps 752 mmHg 83%
23:00 +25°C° 0 mm 2 mps 751 mmHg 86%

Day after tomorrow, 30 October, Friday

Time Temperature Precipitation Wind Pressure Humidity
00:00 +24°C° 0 mm 2 mps 751 mmHg 88%
01:00 +24°C° 0 mm 1 mps 751 mmHg 90%
02:00 +24°C° 0 mm 1 mps 751 mmHg 91%
03:00 +23°C° 0 mm 1 mps 751 mmHg 92%
04:00 +23°C° 0 mm 1 mps 751 mmHg 93%
05:00 +24°C° 0 mm 1 mps 751 mmHg 89%
06:00 +25°C° 0 mm 1 mps 752 mmHg 84%
07:00 +26°C° 0 mm 1 mps 752 mmHg 80%
08:00 +28°C° 0 mm 2 mps 752 mmHg 69%
09:00 +30°C° 0 mm 2 mps 752 mmHg 58%
10:00 +33°C° 0 mm 3 mps 752 mmHg 46%
11:00 +33°C° 0 mm 3 mps 751 mmHg 46%
12:00 +33°C° 0 mm 4 mps 751 mmHg 45%
13:00 +34°C° 0 mm 4 mps 750 mmHg 44%
14:00 +33°C° 0 mm 4 mps 750 mmHg 46%
15:00 +33°C° 0 mm 4 mps 749 mmHg 48%
16:00 +32°C° 0 mm 4 mps 749 mmHg 50%
17:00 +29°C° 0 mm 4 mps 749 mmHg 60%
18:00 +28°C° 0 mm 3 mps 750 mmHg 71%
19:00 +26°C° 0 mm 3 mps 750 mmHg 81%
20:00 +26°C° 0 mm 3 mps 751 mmHg 84%
21:00 +26°C° 0 mm 3 mps 751 mmHg 86%
22:00 +25°C° 0 mm 3 mps 751 mmHg 89%
23:00 +25°C° 0 mm 4 mps 751 mmHg 89%

31 October, Saturday

Time Temperature Precipitation Wind Pressure Humidity
00:00 +25°C° 0 mm 4 mps 751 mmHg 89%
01:00 +25°C° 0 mm 5 mps 751 mmHg 89%
02:00 +25°C° 0 mm 5 mps 751 mmHg 88%
03:00 +25°C° 0 mm 4 mps 751 mmHg 87%
04:00 +25°C° 0 mm 4 mps 751 mmHg 86%
05:00 +26°C° 0 mm 4 mps 751 mmHg 83%
06:00 +26°C° 0 mm 4 mps 752 mmHg 79%
07:00 +27°C° 0 mm 4 mps 752 mmHg 76%
08:00 +28°C° 0 mm 4 mps 752 mmHg 70%
09:00 +30°C° 0 mm 4 mps 752 mmHg 63%
10:00 +32°C° 0 mm 5 mps 752 mmHg 57%
11:00 +32°C° 0 mm 4 mps 752 mmHg 54%
12:00 +33°C° 0 mm 4 mps 751 mmHg 51%
13:00 +34°C° 0 mm 4 mps 751 mmHg 48%
14:00 +33°C° 0 mm 4 mps 750 mmHg 49%
15:00 +33°C° 0 mm 4 mps 750 mmHg 50%
16:00 +32°C° 0 mm 4 mps 750 mmHg 52%
17:00 +30°C° 0 mm 4 mps 750 mmHg 60%
18:00 +28°C° 0 mm 3 mps 750 mmHg 69%
19:00 +26°C° 0 mm 3 mps 751 mmHg 77%
20:00 +26°C° 0 mm 3 mps 751 mmHg 79%
21:00 +26°C° 0 mm 3 mps 752 mmHg 80%
22:00 +25°C° 0 mm 3 mps 753 mmHg 82%
23:00 +25°C° 0 mm 2 mps 752 mmHg 83%

1 November, Sunday

Time Temperature Precipitation Wind Pressure Humidity
00:00 +25°C° 0 mm 2 mps 752 mmHg 85%
01:00 +24°C° 0 mm 2 mps 752 mmHg 87%
02:00 +24°C° 0 mm 2 mps 752 mmHg 88%
03:00 +24°C° 0 mm 2 mps 752 mmHg 89%
04:00 +24°C° 0 mm 2 mps 753 mmHg 90%
05:00 +25°C° 0 mm 1 mps 753 mmHg 84%
06:00 +26°C° 0 mm 1 mps 754 mmHg 79%
07:00 +27°C° 0 mm 1 mps 754 mmHg 74%
08:00 +29°C° 0 mm 1 mps 754 mmHg 63%
09:00 +31°C° 0 mm 2 mps 754 mmHg 52%
10:00 +34°C° 0 mm 2 mps 754 mmHg 42%
11:00 +34°C° 0 mm 2 mps 753 mmHg 41%
12:00 +34°C° 0 mm 3 mps 753 mmHg 40%
13:00 +35°C° 0 mm 4 mps 752 mmHg 40%
14:00 +34°C° 0 mm 4 mps 752 mmHg 42%
15:00 +33°C° 0 mm 4 mps 752 mmHg 45%
16:00 +32°C° 0 mm 4 mps 751 mmHg 48%
17:00 +30°C° 0 mm 3 mps 752 mmHg 59%
18:00 +28°C° 0 mm 3 mps 752 mmHg 69%
19:00 +26°C° 0 mm 2 mps 752 mmHg 80%
20:00 +26°C° 0 mm 2 mps 753 mmHg 83%
21:00 +26°C° 0 mm 2 mps 753 mmHg 87%
22:00 +25°C° 0 mm 2 mps 754 mmHg 90%
23:00 +25°C° 0 mm 2 mps 754 mmHg 90%

2 November, Monday

Time Temperature Precipitation Wind Pressure Humidity
00:00 +25°C° 0 mm 2 mps 753 mmHg 89%
01:00 +26°C° 0 mm 2 mps 753 mmHg 89%
02:00 +25°C° 0.1 mm 2 mps 753 mmHg 89%
03:00 +25°C° 0.1 mm 1 mps 753 mmHg 90%
04:00 +25°C° 0.1 mm 1 mps 753 mmHg 91%
05:00 +26°C° 0 mm 1 mps 754 mmHg 86%
06:00 +27°C° 0 mm 1 mps 754 mmHg 82%
07:00 +27°C° 0 mm 1 mps 755 mmHg 78%
08:00 +29°C° 0 mm 1 mps 755 mmHg 69%
09:00 +31°C° 0 mm 2 mps 755 mmHg 60%
10:00 +33°C° 0 mm 3 mps 755 mmHg 52%
11:00 +33°C° 0 mm 3 mps 754 mmHg 51%
12:00 +34°C° 0 mm 3 mps 753 mmHg 50%
13:00 +34°C° 0 mm 4 mps 753 mmHg 49%
14:00 +34°C° 0 mm 4 mps 753 mmHg 51%
15:00 +33°C° 0 mm 3 mps 752 mmHg 54%
16:00 +33°C° 0 mm 3 mps 752 mmHg 56%
17:00 +30°C° 0 mm 3 mps 752 mmHg 65%
18:00 +28°C° 0 mm 3 mps 753 mmHg 74%
19:00 +27°C° 0 mm 3 mps 753 mmHg 82%
20:00 +27°C° 0 mm 3 mps 753 mmHg 86%
21:00 +26°C° 0 mm 3 mps 754 mmHg 89%
22:00 +26°C° 0 mm 3 mps 754 mmHg 92%
23:00 +26°C° 0 mm 3 mps 754 mmHg 92%
Show more

We Need Your Consent

Meteoprog and our Service Providers may store and access personal data such as cookies, device identifiers or other similar technologies on your device and process such data to personalise content and ads, as well as provide social media features and to analyse the traffic.

  • Store and/or access information on your device

    Cookies, device identifiers or other information can be stored or accessed on your device for the purposes indicated above.

  • Personalised ads and content, ad and content measurement, audience insights, and products development

    Ads and content can be personalised based on a profile. More data can be added to better personalise ads and content. Ad and content performance can be measured. Insights about the audience who saw the ads and content can be derived. Such data can be used to develop or improve user’s experience, systems and software.

By clicking ‘I Agree’ you will allow the use of indicated cookies, device identifiers, web beacons or other similar technologies. Your settings can be changed in the browser on your device.

For certain purposes, legitimate interests may be relied on, rather than consent. You can read more about this in our Privacy and Cookie Policy.